Chester, CT

7:15 PM EDT on March 23, 2017 (GMT -0400)
Chester

Weather History for KSNC - June, 2013

Change the Weather History Date:

Friday, June 14, 2013

  Actual Average (KHVN) Record (KHVN)
Temperature  
Mean Temperature 61 °F -  
Max Temperature 71 °F 73 °F 94 °F (1988)
Min Temperature 51 °F 57 °F 49 °F (1978)
Degree Days  
Heating Degree Days 4    
Growing Degree Days 11 (Base 50)    
Moisture  
Dew Point 52 °F    
Average Humidity 78    
Maximum Humidity 100    
Minimum Humidity 43    
Precipitation  
Precipitation 3.65 in - - ()
Sea Level Pressure  
Sea Level Pressure 29.72 in    
Wind  
Wind Speed 9 mph (North)    
Max Wind Speed 14 mph    
Max Gust Speed 25 mph    
Visibility 8 miles    
Events Rain    
Averages and records for this station are not official NWS values.
T = Trace of Precipitation, MM = Missing Value Source: NWS Daily Summary

Daily Weather History Graph

Daily Weather History Graph

Search for Another Location

Airport or City:

Trip Planner

Search our weather history database for the weather conditions in past years. The results will help you decide how hot, cold, wet, or windy it might be!

Date:

Astronomy

Jun. 14, 2013 Rise Set
Actual Time 5:15 AM EDT 8:24 PM EDT
Civil Twilight 4:42 AM EDT 8:58 PM EDT
Nautical Twilight 3:58 AM EDT 9:42 PM EDT
Astronomical Twilight 3:07 AM EDT 10:34 PM EDT
Moon 10:51 AM EDT (6/14) 11:55 PM EDT (6/14)
Length of Visible Light 16h 16m
Length of Day
15h 08m
Waxing Crescent, 30% of the Moon is Illuminated
Jun 14
Waxing Crescent
Jun 16
First Quarter
Jun 23
Full
Jun 30
Last Quarter
Jul 8
New

Hourly Weather History & Observations

Time (EDT) Temp. Dew Point Humidity Pressure Visibility Wind Dir Wind Speed Gust Speed Precip Events Conditions
12:15 AM 51.8 °F 51.8 °F 100% 29.56 in 2.0 mi NE 11.5 mph 18.4 mph 0.05 in Rain Heavy Rain
12:35 AM 53.6 °F 51.8 °F 94% 29.56 in 3.0 mi NE 11.5 mph 23.0 mph 0.27 in Rain Heavy Rain
12:55 AM 53.6 °F 51.8 °F 94% 29.56 in 3.0 mi NNE 9.2 mph 18.4 mph 0.56 in Rain Heavy Rain
1:15 AM 51.8 °F 51.8 °F 100% 29.57 in 3.0 mi NE 9.2 mph 20.7 mph 0.22 in Rain Heavy Rain
1:35 AM 51.8 °F 51.8 °F 100% 29.57 in 4.0 mi NE 10.4 mph 20.7 mph 0.50 in Rain Heavy Rain
1:55 AM 51.8 °F 51.8 °F 100% 29.57 in 2.5 mi NNE 12.7 mph 25.3 mph 0.83 in Rain Heavy Rain
2:15 AM 51.8 °F 51.8 °F 100% 29.58 in 2.0 mi NNE 10.4 mph 19.6 mph 0.38 in Rain Heavy Rain
2:35 AM 51.8 °F 51.8 °F 100% 29.59 in 2.0 mi NNE 9.2 mph 16.1 mph 1.16 in Rain Heavy Rain
2:55 AM 51.8 °F 51.8 °F 100% 29.59 in 3.0 mi NNE 13.8 mph 20.7 mph 1.48 in Rain Heavy Rain
3:15 AM 51.8 °F 51.8 °F 100% 29.59 in 3.0 mi NNE 10.4 mph - 0.19 in Rain Heavy Rain
3:35 AM 51.8 °F 51.8 °F 100% 29.60 in 4.0 mi NNE 9.2 mph 16.1 mph 0.33 in Rain Rain
3:55 AM 51.8 °F 51.8 °F 100% 29.61 in 3.0 mi North 11.5 mph - 0.41 in Rain Rain
4:15 AM 51.8 °F 51.8 °F 100% 29.62 in 4.0 mi NNE 10.4 mph 16.1 mph 0.05 in Rain Rain
4:35 AM 53.6 °F 51.8 °F 94% 29.63 in 8.0 mi NNE 9.2 mph - 0.07 in Rain Light Rain
4:55 AM 53.6 °F 53.6 °F 100% 29.63 in 3.0 mi NNE 9.2 mph 19.6 mph 0.14 in Rain Rain
5:15 AM 53.6 °F 53.6 °F 100% 29.63 in 3.0 mi NNE 11.5 mph 16.1 mph 0.12 in Rain Heavy Rain
5:35 AM 53.6 °F 53.6 °F 100% 29.63 in 4.0 mi NNE 12.7 mph 17.3 mph 0.20 in Rain Rain
5:55 AM 53.6 °F 53.6 °F 100% 29.63 in 5.0 mi NNE 9.2 mph 17.3 mph 0.23 in Rain Light Rain
6:15 AM 53.6 °F 53.6 °F 100% 29.64 in 5.0 mi NNE 10.4 mph 19.6 mph N/A Rain Light Rain
6:35 AM 53.6 °F 53.6 °F 100% 29.66 in 10.0 mi North 10.4 mph 16.1 mph N/A Rain Light Rain
6:55 AM 53.6 °F 53.6 °F 100% 29.67 in 10.0 mi North 11.5 mph 18.4 mph N/A   Overcast
7:15 AM 53.6 °F 53.6 °F 100% 29.67 in 10.0 mi NNE 8.1 mph - N/A   Overcast
7:35 AM 53.6 °F 53.6 °F 100% 29.67 in 10.0 mi NNE 8.1 mph 17.3 mph N/A   Overcast
7:55 AM 53.6 °F 53.6 °F 100% 29.68 in 10.0 mi North 12.7 mph 17.3 mph N/A   Overcast
8:15 AM 55.4 °F 53.6 °F 94% 29.70 in 10.0 mi NE 9.2 mph - N/A   Overcast
8:35 AM 55.4 °F 53.6 °F 94% 29.69 in 10.0 mi NE 11.5 mph 24.2 mph N/A   Scattered Clouds
8:55 AM 57.2 °F 53.6 °F 88% 29.69 in 10.0 mi NNE 9.2 mph 16.1 mph N/A   Partly Cloudy
9:15 AM 57.2 °F 51.8 °F 82% 29.70 in 10.0 mi NE 9.2 mph 18.4 mph N/A   Partly Cloudy
9:35 AM 57.2 °F 50.0 °F 77% 29.72 in 10.0 mi NE 6.9 mph - N/A   Scattered Clouds
9:55 AM 57.2 °F 50.0 °F 77% 29.74 in 10.0 mi NNE 6.9 mph - N/A   Partly Cloudy
10:15 AM 57.2 °F 50.0 °F 77% 29.75 in 10.0 mi NNE 6.9 mph - N/A   Scattered Clouds
10:35 AM 59.0 °F 48.2 °F 67% 29.75 in 10.0 mi NNE 8.1 mph - N/A   Scattered Clouds
10:55 AM 60.8 °F 48.2 °F 63% 29.76 in 10.0 mi North 10.4 mph 17.3 mph N/A   Scattered Clouds
11:15 AM 60.8 °F 48.2 °F 63% 29.76 in 10.0 mi NNE 11.5 mph 18.4 mph N/A   Scattered Clouds
11:35 AM 60.8 °F 48.2 °F 63% 29.77 in 10.0 mi North 11.5 mph 16.1 mph N/A   Scattered Clouds
11:55 AM 60.8 °F 48.2 °F 63% 29.77 in 10.0 mi NNE 8.1 mph 16.1 mph N/A   Partly Cloudy
12:15 PM 62.6 °F 48.2 °F 59% 29.77 in 10.0 mi NNE 5.8 mph - N/A   Partly Cloudy
12:35 PM 62.6 °F 48.2 °F 59% 29.77 in 9.0 mi NNE 5.8 mph - N/A   Clear
12:55 PM 62.6 °F 48.2 °F 59% 29.78 in 10.0 mi North 8.1 mph - N/A   Partly Cloudy
1:15 PM 64.4 °F 50.0 °F 59% 29.78 in 10.0 mi North 4.6 mph - N/A   Partly Cloudy
1:35 PM 66.2 °F 51.8 °F 60% 29.77 in 10.0 mi NNW 4.6 mph - N/A   Partly Cloudy
1:55 PM 68.0 °F 50.0 °F 52% 29.77 in 9.0 mi North 6.9 mph 16.1 mph N/A   Partly Cloudy
2:15 PM 69.8 °F 50.0 °F 49% 29.77 in 10.0 mi North 10.4 mph - N/A   Clear
2:35 PM 69.8 °F 50.0 °F 49% 29.77 in 10.0 mi North 8.1 mph - N/A   Clear
2:55 PM 69.8 °F 48.2 °F 46% 29.77 in 9.0 mi NNE 5.8 mph - N/A   Clear
3:15 PM 69.8 °F 48.2 °F 46% 29.76 in 10.0 mi NNE 6.9 mph - N/A   Clear
3:35 PM 71.6 °F 48.2 °F 43% 29.76 in 10.0 mi North 5.8 mph - N/A   Clear
3:55 PM 71.6 °F 48.2 °F 43% 29.76 in - NW 3.5 mph - N/A   Partly Cloudy
4:15 PM 71.6 °F 48.2 °F 43% 29.76 in - North 5.8 mph - N/A   Clear
4:35 PM 71.6 °F 48.2 °F 43% 29.77 in - NNW 8.1 mph - N/A   Clear
4:55 PM 71.6 °F 48.2 °F 43% 29.77 in - NNW 5.8 mph - N/A   Clear
5:15 PM 71.6 °F 48.2 °F 43% 29.78 in - NW 4.6 mph - N/A   Clear
5:35 PM 68.0 °F 53.6 °F 60% 29.78 in - SW 8.1 mph - N/A   Clear
5:55 PM 66.2 °F 53.6 °F 64% 29.78 in - WSW 5.8 mph - N/A   Clear
6:15 PM 66.2 °F 53.6 °F 64% 29.79 in - WSW 4.6 mph - N/A   Clear
6:35 PM 66.2 °F 55.4 °F 68% 29.79 in - West 3.5 mph - N/A   Clear
6:55 PM 64.4 °F 55.4 °F 73% 29.79 in 10.0 mi West 4.6 mph - N/A   Clear
7:15 PM 64.4 °F 55.4 °F 73% 29.80 in 10.0 mi West 5.8 mph - N/A   Mostly Cloudy
7:35 PM 64.4 °F 55.4 °F 73% 29.80 in 10.0 mi West 5.8 mph - N/A   Scattered Clouds
7:55 PM 62.6 °F 57.2 °F 82% 29.80 in 10.0 mi West 5.8 mph - N/A   Clear
8:15 PM 62.6 °F 57.2 °F 82% 29.80 in 10.0 mi West 4.6 mph - N/A   Clear
8:35 PM 62.6 °F 57.2 °F 82% 29.81 in 10.0 mi West 4.6 mph - N/A   Clear
8:55 PM 62.6 °F 55.4 °F 77% 29.82 in 10.0 mi WNW 4.6 mph - N/A   Clear
9:15 PM 60.8 °F 55.4 °F 82% 29.82 in 10.0 mi WNW 4.6 mph - N/A   Clear
9:35 PM 60.8 °F 55.4 °F 82% 29.82 in 10.0 mi WNW 5.8 mph - N/A   Clear
9:55 PM 60.8 °F 55.4 °F 82% 29.82 in 10.0 mi WNW 5.8 mph - N/A   Clear
10:15 PM 60.8 °F 57.2 °F 88% 29.82 in 10.0 mi NW 5.8 mph - N/A   Clear
10:35 PM 60.8 °F 57.2 °F 88% 29.83 in 10.0 mi NW 6.9 mph - N/A   Clear
10:55 PM 62.6 °F 55.4 °F 77% 29.83 in 10.0 mi NW 6.9 mph - N/A   Clear
11:15 PM 60.8 °F 55.4 °F 82% 29.84 in 10.0 mi NW 5.8 mph - N/A   Clear
11:35 PM 60.8 °F 55.4 °F 82% 29.85 in 10.0 mi NW 6.9 mph - N/A   Clear
11:55 PM 60.8 °F 55.4 °F 82% 29.85 in 10.0 mi NNW 8.1 mph - N/A   Clear